Theta_e
281 280 279 278 277 277 277 276 276 276 276 276 275 275 275 274 274 273 273 273 272 272 272 272 272 272 272 272 271 271 271 271 271 271 270 271 270 269 269 269 267 265 264 265 264 264 265 265 265 264 265 265 265 265 265 269 267 267 266 266 266 266 271
282 281 279 278 277 277 277 277 276 276 276 275 275 275 275 274 274 273 273 273 272 272 272 272 272 271 272 272 271 271 270 271 270 270 269 269 269 269 268 269 267 266 265 263 264 262 264 264 265 264 265 264 265 264 265 265 265 266 266 266 265 265 265
282 282 280 279 278 277 277 276 276 276 276 275 275 274 274 275 274 274 273 273 273 272 272 272 271 271 272 271 271 271 271 271 270 270 269 269 270 269 269 268 268 266 264 263 263 264 263 264 264 264 264 265 265 265 265 265 264 265 265 266 265 265 265
282 282 281 279 278 277 276 276 276 276 276 275 275 275 275 275 274 274 274 273 273 273 272 272 271 271 272 271 270 270 270 270 270 270 269 269 269 269 268 268 268 268 266 264 262 263 263 265 263 264 264 265 265 264 264 265 264 264 264 264 265 265 264
281 281 281 280 279 277 276 276 276 276 276 276 275 275 275 275 275 274 274 274 274 274 273 272 271 271 271 271 270 270 269 270 269 269 269 269 269 269 269 268 268 267 267 264 262 262 263 264 264 264 264 264 263 264 264 264 264 264 264 264 264 264 265
281 281 281 280 279 278 277 277 276 276 276 276 275 275 275 275 275 274 274 274 274 273 273 272 272 272 271 271 270 269 269 269 269 269 268 268 268 268 268 267 267 267 266 265 263 262 260 261 262 262 263 264 264 263 262 262 263 263 263 262 262 263 264
280 281 280 280 280 279 278 277 277 276 276 276 275 275 275 275 274 274 274 274 274 273 273 273 272 272 271 270 270 270 269 269 269 268 268 268 268 268 267 266 266 266 265 264 263 261 261 261 261 262 261 263 264 264 263 261 260 260 260 261 262 262 262
280 280 280 280 280 279 278 277 277 276 276 276 276 275 275 275 274 274 274 274 273 273 273 273 272 272 271 271 271 270 270 269 268 268 267 268 268 267 266 265 265 264 264 263 262 261 260 259 260 260 261 262 262 260 260 262 261 259 260 259 260 261 261
279 278 278 278 278 278 278 277 277 277 276 276 275 275 274 274 274 274 273 273 273 273 272 272 272 272 271 271 271 272 271 271 270 268 267 267 267 266 266 265 265 264 263 261 261 260 259 259 259 259 259 259 259 259 260 261 261 260 260 260 260 260 262
275 276 276 276 276 275 275 275 276 277 278 278 275 275 274 274 274 274 273 272 272 272 272 271 271 271 272 272 272 271 271 271 271 270 269 268 267 266 266 265 264 263 262 261 260 259 260 258 259 259 259 260 260 261 261 260 260 259 260 258 258 259 260
274 273 273 273 273 273 273 274 274 277 279 279 279 276 274 273 273 273 273 272 272 271 271 271 271 271 271 271 271 271 271 271 271 271 270 270 270 268 266 265 264 263 262 260 260 260 259 259 259 260 260 260 261 261 260 260 260 259 259 257 256 256 256
273 272 272 272 272 272 273 273 275 277 278 279 280 278 274 273 273 272 272 272 271 271 271 270 270 270 270 270 270 270 270 271 271 270 270 270 270 269 269 269 266 263 261 260 260 259 259 259 259 260 260 260 260 260 260 260 259 259 258 257 257 257 256
273 272 272 272 272 272 272 272 275 277 278 279 279 280 277 273 273 272 272 272 271 271 271 270 270 269 269 269 271 270 269 269 269 270 270 270 270 269 269 271 272 270 265 263 261 260 260 260 260 259 260 260 260 261 259 258 258 258 258 258 258 258 259
272 272 271 271 271 271 271 271 274 276 278 279 279 280 279 274 273 272 272 271 271 271 270 270 269 269 268 268 269 270 269 269 268 268 268 268 268 267 268 268 270 270 268 265 263 262 261 262 261 260 261 261 262 259 258 258 257 258 258 258 258 259 260
270 270 270 270 270 270 270 270 274 276 277 278 279 280 279 277 273 272 271 271 271 270 270 270 269 269 268 268 267 269 269 268 267 267 267 267 266 266 266 266 266 266 267 266 264 263 262 263 262 262 262 260 261 261 261 260 259 259 259 259 259 258 257
268 268 268 269 269 269 269 269 274 276 277 277 278 279 277 277 274 272 271 270 270 270 270 270 269 268 268 267 267 268 270 269 267 267 266 265 265 265 265 264 266 269 270 267 266 265 264 263 264 266 263 262 261 261 261 261 261 259 257 256 256 256 257
267 267 267 267 268 267 267 267 271 274 276 277 277 277 276 274 271 271 270 270 269 269 269 268 268 268 267 267 266 268 272 273 269 266 265 264 264 263 263 262 263 270 273 273 273 273 272 272 271 272 272 272 271 265 262 260 258 257 257 256 256 256 256
266 266 266 266 266 265 265 266 268 272 274 275 276 276 275 270 269 269 269 268 268 267 267 267 269 269 267 267 266 269 272 273 270 266 264 263 262 261 260 261 261 262 265 272 274 273 273 273 273 273 273 273 273 272 269 260 258 259 259 257 257 256 257
265 264 264 263 263 268 266 264 266 270 272 274 275 275 273 269 268 267 267 267 267 266 266 266 268 269 268 267 267 271 273 274 271 267 265 264 262 261 260 261 262 261 261 261 262 264 266 266 269 268 268 268 270 271 270 266 262 262 260 258 258 258 258
262 261 261 260 260 261 261 262 263 266 271 272 273 274 272 269 267 266 266 267 266 266 266 265 265 267 268 271 271 272 273 274 274 269 267 265 263 262 261 263 262 263 262 261 261 261 262 262 263 263 263 262 262 264 264 265 264 263 262 260 259 259 258
259 259 259 259 260 260 261 261 262 264 270 271 272 273 272 270 269 267 266 266 266 266 265 265 265 265 267 270 272 273 273 274 274 273 269 267 265 265 266 266 263 263 264 262 262 261 261 261 261 262 262 261 259 258 258 259 261 263 263 262 260 259 259
258 258 259 260 260 260 261 262 264 262 267 269 270 271 272 269 268 268 266 265 265 265 265 265 266 265 267 268 271 273 273 273 273 274 270 269 272 272 272 268 266 264 263 263 262 261 261 260 260 260 260 260 260 260 259 258 258 259 261 262 262 261 260
257 257 258 260 260 260 261 261 261 264 264 266 269 269 270 271 269 271 269 267 266 266 266 266 265 266 267 268 272 272 272 273 273 272 270 273 273 272 270 269 267 265 264 263 262 261 260 260 259 259 259 259 259 260 260 258 258 258 259 259 260 261 261
257 257 257 258 259 260 260 260 259 262 264 264 266 268 269 270 270 270 268 267 266 267 267 267 266 266 269 271 272 272 272 272 270 269 272 273 272 270 270 269 267 266 265 263 262 262 261 260 260 259 259 259 259 260 259 259 259 258 257 257 258 258 259
256 255 256 256 257 257 258 258 258 258 261 263 263 266 267 268 269 268 267 265 265 266 266 267 269 270 271 271 272 271 272 270 269 270 270 269 269 269 267 267 265 265 265 264 262 262 262 262 261 261 260 260 260 259 258 254 254 255 255 255 256 255 255
254 254 254 254 254 255 256 256 255 256 256 259 261 262 264 266 265 264 264 264 263 264 265 265 267 266 266 265 266 267 267 266 266 267 268 268 268 267 266 264 262 262 262 262 262 262 262 262 262 261 260 259 258 257 256 256 255 253 253 252 252 251 254
254 254 253 253 255 255 255 255 254 255 254 255 255 256 258 258 259 261 262 261 260 261 261 261 262 262 263 264 265 265 266 267 268 266 266 266 265 265 264 263 261 261 261 261 261 260 261 261 262 261 258 257 257 257 257 256 256 255 255 254 252 253 253
254 254 255 256 257 257 256 256 255 255 255 256 256 256 256 256 256 256 256 256 257 257 258 258 260 260 258 257 258 259 261 262 264 265 264 264 264 262 261 262 263 263 261 261 261 260 260 258 260 259 259 258 257 257 257 256 256 255 255 254 252 249 252
256 258 259 259 259 259 259 258 258 258 261 260 262 260 259 257 256 256 256 258 260 259 257 254 254 254 254 253 254 255 256 257 259 261 262 262 261 259 258 258 259 260 260 260 258 258 257 257 258 259 259 258 257 257 257 256 256 256 257 254 254 254 254
263 264 263 262 261 261 260 260 261 264 267 267 267 268 267 266 266 265 262 262 262 262 259 257 256 256 255 255 254 254 254 255 256 257 258 258 259 257 256 256 257 258 260 258 257 258 257 256 256 257 257 257 257 255 253 253 256 255 256 255 253 253 254
266 266 264 262 260 261 263 263 263 263 266 266 267 267 267 267 265 265 265 265 262 261 259 258 256 256 255 254 254 254 254 255 255 256 256 257 258 258 257 257 256 256 257 257 257 256 257 257 256 256 256 255 255 255 253 249 251 253 254 255 254 253 253
264 264 264 262 261 261 260 261 261 261 264 265 265 265 265 265 266 266 264 261 262 259 259 258 257 257 256 255 254 254 254 254 254 255 255 255 255 256 256 257 257 257 256 257 256 256 255 255 255 255 255 254 254 254 253 251 251 252 252 252 252 253 253
262 262 262 262 263 263 262 260 260 261 263 263 264 264 262 263 262 261 260 258 255 253 253 254 254 254 255 256 256 256 256 255 254 254 254 254 255 255 255 255 256 258 257 256 256 256 255 255 254 254 254 253 253 253 253 251 251 251 251 252 251 251 251
258 258 257 258 259 260 260 260 261 260 260 261 263 263 261 258 258 260 258 255 251 251 249 250 250 252 253 253 254 255 255 256 256 256 256 255 255 255 255 256 256 256 256 256 256 256 256 255 255 254 253 252 252 252 253 252 251 250 250 250 251 250 249
252 254 256 255 255 256 256 256 256 256 257 258 259 258 258 257 251 250 250 251 250 250 249 250 250 250 252 252 253 254 254 254 255 255 256 256 256 256 256 256 256 255 256 256 256 255 255 255 255 254 253 253 252 251 251 251 251 250 250 250 249 249 248
249 250 253 255 255 255 255 255 256 256 257 259 259 257 254 249 248 248 249 249 250 250 251 251 252 252 252 252 252 252 252 253 252 253 253 254 255 256 256 256 256 256 255 255 255 255 255 255 254 254 253 253 252 252 252 252 251 250 250 250 250 249 249
Wind_Speed
14 13 14 14 14 15 15 16 16 15 15 15 16 15 16 15 15 17 15 14 15 14 13 14 15 16 15 11 11 10 9 9 10 9 9 7 7 8 6 8 8 10 10 3 2 4 5 4 5 3 5 5 3 3 3 4 3 3 3 4 5 5 11
13 13 13 13 15 15 16 16 16 15 14 16 16 16 13 14 16 16 17 15 16 15 13 13 15 15 14 13 13 11 10 10 9 9 9 9 8 5 6 6 9 10 9 10 3 5 2 4 4 7 3 7 5 4 3 4 5 4 4 5 5 5 5
13 14 13 13 14 14 15 16 15 15 15 16 17 17 16 15 17 18 17 17 18 17 15 14 15 15 13 10 12 12 10 9 10 9 10 10 8 6 6 7 10 9 10 10 7 6 6 6 5 7 6 4 5 4 5 6 6 6 5 5 5 6 4
13 12 13 13 14 13 14 15 15 14 15 17 17 17 18 17 17 17 18 17 17 16 14 16 15 15 13 12 13 12 11 10 9 10 9 10 10 9 11 6 7 9 9 7 7 6 9 7 7 6 4 5 4 5 6 6 6 4 5 5 5 5 4
11 12 12 13 14 14 14 15 15 15 16 15 15 17 17 16 16 16 17 16 16 16 15 15 16 15 13 13 13 12 11 11 13 11 10 11 10 9 5 5 7 10 9 7 9 6 4 6 5 5 5 6 6 5 5 5 6 6 6 6 6 5 5
10 10 13 13 13 13 14 14 14 15 16 16 15 15 15 15 15 15 15 15 15 15 14 15 15 13 13 14 15 14 13 12 14 12 11 12 10 9 9 9 10 9 9 9 9 6 6 4 7 4 5 6 7 7 6 5 5 5 5 4 4 4 4
11 10 11 12 12 12 13 13 13 14 14 14 14 14 14 15 14 14 13 13 14 13 13 13 13 13 13 15 15 15 15 14 13 13 13 13 12 10 10 9 9 9 9 9 8 6 6 7 5 7 7 4 7 7 7 7 6 7 4 4 5 6 4
10 10 9 10 10 11 10 10 10 11 11 12 13 13 14 14 13 14 13 12 12 12 12 13 13 13 14 15 15 15 14 14 14 12 12 11 10 10 10 10 9 8 9 9 8 8 7 6 7 4 3 2 4 4 5 6 7 10 8 6 4 5 6
6 6 7 7 7 7 7 8 9 9 10 10 11 11 12 13 13 13 12 12 12 11 11 11 11 13 13 14 12 12 13 13 12 13 12 11 11 11 11 10 9 9 8 8 8 8 4 5 7 7 6 7 7 10 11 5 6 9 7 5 5 5 5
3 3 4 5 4 4 4 5 5 7 12 11 10 10 10 10 11 12 12 12 11 11 11 12 11 11 13 13 14 15 16 16 16 16 13 13 12 13 11 11 10 10 9 9 9 10 8 8 10 9 9 10 10 7 4 6 7 9 6 3 7 5 5
4 3 2 2 3 3 3 3 3 5 10 14 15 10 9 10 10 10 11 11 12 12 11 10 10 9 12 13 13 14 18 18 18 19 18 18 19 15 15 13 12 11 9 10 10 9 9 11 11 10 8 10 8 6 9 9 7 7 5 6 8 10 2
4 4 3 2 2 3 3 3 3 7 10 13 15 13 9 8 9 9 10 10 11 10 10 10 10 9 9 11 13 13 14 17 18 20 20 19 18 19 19 19 16 13 10 10 10 10 11 10 12 10 8 8 6 9 8 8 6 8 8 9 9 9 8
5 4 3 2 3 4 3 3 4 8 11 13 15 17 13 8 9 9 10 10 11 10 10 9 9 9 9 9 15 13 12 13 15 17 20 20 19 18 21 25 25 21 15 13 13 13 13 13 10 10 10 8 9 6 8 6 8 8 8 9 10 10 8
4 4 3 3 3 4 3 3 4 9 12 13 16 18 16 8 11 10 10 11 11 10 10 10 10 10 10 9 11 11 12 13 12 13 13 15 15 14 16 22 25 24 18 14 14 13 14 12 10 13 8 8 8 9 10 9 10 9 9 10 12 12 10
5 4 4 4 3 4 4 3 6 9 12 14 16 18 16 9 9 10 10 10 10 10 10 10 10 10 10 10 11 10 12 13 13 12 12 13 14 14 13 13 14 14 13 12 12 12 13 12 11 11 8 6 9 12 11 11 13 12 12 11 8 6 5
3 4 4 4 4 4 5 3 7 10 12 14 15 17 10 8 7 9 9 10 9 10 9 9 10 9 9 10 10 14 18 16 11 12 14 14 13 12 11 11 12 17 17 14 12 11 13 12 11 13 10 11 10 10 10 9 9 6 5 6 9 11 7
4 3 4 4 4 4 4 4 6 10 12 14 16 13 7 6 3 5 8 8 8 9 9 9 10 10 10 10 10 14 22 23 17 12 14 13 13 11 10 11 8 19 27 28 29 28 26 24 24 26 28 27 27 18 13 10 9 11 8 9 11 11 9
4 3 3 3 4 3 3 4 6 10 12 14 15 13 8 2 3 4 6 5 4 4 5 9 17 14 10 11 11 16 24 25 19 13 14 13 13 15 13 10 6 6 13 26 30 30 31 31 31 30 30 30 30 30 23 13 14 14 10 13 12 12 10
4 4 3 3 3 5 4 4 5 9 11 13 14 11 3 2 2 4 3 4 4 4 5 5 8 14 13 11 13 21 24 26 21 13 13 14 13 15 15 13 9 12 11 9 10 13 14 16 20 18 15 15 26 28 24 15 15 11 11 13 12 11 8
3 4 4 3 3 3 3 4 5 5 11 12 13 15 8 2 3 3 3 3 4 5 5 6 6 9 16 21 20 22 25 25 27 18 14 13 13 14 17 11 11 14 11 12 13 14 14 15 14 12 9 6 6 9 6 6 9 12 12 12 12 10 10
4 4 4 4 4 4 4 3 4 6 11 12 13 15 13 5 1 2 3 4 5 5 6 6 7 7 12 21 23 24 25 26 27 25 16 15 14 14 15 14 12 14 17 14 13 13 12 11 11 10 9 8 7 7 7 6 6 8 10 10 10 10 10
4 5 5 5 4 4 4 4 5 5 9 13 15 15 17 10 7 5 3 5 5 5 6 7 6 7 11 18 23 25 26 28 28 30 18 15 23 26 28 18 13 12 11 12 11 11 11 10 10 10 10 10 9 9 9 8 8 8 9 10 10 12 11
5 5 6 6 5 4 5 5 5 7 7 11 15 16 16 17 13 15 10 7 5 5 7 6 7 9 13 17 23 25 26 27 30 25 18 27 27 26 27 21 12 11 12 11 11 11 12 11 11 11 11 11 10 10 9 8 8 9 10 10 10 9 10
6 5 6 6 7 6 5 5 5 7 10 9 14 16 16 16 17 17 10 9 7 5 4 5 6 8 17 22 24 26 26 27 26 17 22 25 25 23 18 13 11 11 11 12 13 13 13 12 12 11 11 11 11 10 9 10 9 9 10 10 9 9 8
5 5 6 6 6 7 7 6 5 6 7 11 11 15 17 17 18 17 16 10 7 7 6 8 13 15 18 22 26 27 26 23 23 26 25 24 22 19 9 9 7 8 8 9 11 12 12 12 12 12 12 10 8 7 4 4 5 5 6 7 7 6 6
6 5 5 6 6 7 7 7 6 6 6 7 7 8 13 17 17 16 16 15 11 14 17 17 17 18 17 14 12 10 9 9 10 14 17 18 17 11 9 4 4 5 7 8 7 7 9 9 8 8 8 6 5 6 8 7 7 6 6 6 6 6 7
5 6 7 7 7 7 7 7 7 7 6 7 6 6 7 8 8 10 10 9 8 8 8 10 11 9 11 11 16 17 16 13 13 12 11 10 9 9 9 7 6 6 7 7 6 5 5 5 6 5 5 5 7 8 8 8 8 7 8 7 7 7 8
6 7 7 7 7 7 6 7 6 6 7 8 7 7 7 7 7 7 7 7 8 8 9 8 7 8 5 5 6 7 7 8 8 7 6 8 8 8 8 8 9 8 7 7 7 6 6 4 5 6 7 7 7 8 8 7 8 8 8 7 6 5 7
7 7 7 6 6 6 6 5 6 6 8 9 10 10 9 7 7 7 7 9 12 9 6 3 4 4 6 5 5 6 6 7 7 8 7 5 5 6 6 6 6 9 8 7 6 7 7 7 6 7 6 7 7 8 8 7 8 8 9 6 7 10 8
8 8 7 6 6 6 6 6 7 14 19 19 20 20 18 14 13 12 9 10 16 12 8 6 6 6 6 6 5 6 7 7 7 8 8 7 5 5 5 6 7 8 8 6 8 8 7 7 7 7 7 7 8 7 7 7 8 8 8 8 8 9 9
14 14 14 11 7 9 15 16 17 18 18 20 20 20 20 21 20 19 18 16 9 5 3 5 6 6 6 7 7 7 7 7 7 8 7 8 8 7 7 7 7 7 6 7 7 7 8 8 8 8 7 8 8 8 7 5 6 6 6 9 8 9 8
14 16 16 16 14 11 7 11 15 17 17 18 19 19 19 20 20 18 17 18 13 4 4 4 4 4 5 6 7 7 7 7 7 7 7 7 7 8 7 8 9 8 8 9 7 7 7 8 8 8 8 8 8 8 7 7 6 7 7 8 7 8 8
15 17 18 18 17 17 14 14 15 17 18 19 19 19 18 17 14 15 17 15 9 6 6 6 7 7 7 6 5 5 5 7 7 7 8 8 8 9 8 8 10 9 8 8 8 8 8 8 8 8 7 7 7 7 8 7 8 7 7 8 8 7 6
9 13 15 15 16 16 17 17 18 18 18 19 18 18 19 16 11 16 16 10 4 5 4 4 4 4 5 6 6 7 7 6 5 6 7 7 7 8 8 8 8 8 9 8 9 9 9 8 8 7 8 7 7 8 8 7 7 7 8 7 8 8 7
9 9 13 11 10 13 16 15 16 16 16 16 16 18 20 16 10 10 9 8 5 4 4 5 5 4 4 4 5 6 6 6 7 6 6 6 7 7 8 8 8 8 9 9 9 9 9 8 9 9 8 8 8 8 8 8 7 7 8 8 8 7 7
6 7 9 14 13 15 15 15 15 15 15 17 19 19 16 8 7 6 6 6 6 6 6 5 5 5 5 5 4 4 4 5 6 6 6 7 8 7 6 7 8 8 8 9 9 9 9 8 8 8 8 7 8 9 10 9 9 8 8 8 8 7 8
Wind_Direction
227 220 217 215 214 214 213 213 214 211 212 213 217 217 216 215 211 216 219 215 215 214 213 215 218 219 217 205 207 209 203 205 199 192 198 194 192 200 176 174 207 221 245 219 173 173 185 194 160 195 182 203 208 224 247 247 226 232 248 247 248 244 260
229 225 218 216 217 215 215 215 214 211 209 213 216 217 215 215 212 216 219 214 217 213 211 213 217 220 213 205 209 206 204 202 191 192 191 197 195 177 181 183 198 225 226 239 153 215 212 173 194 197 194 183 215 233 240 261 257 244 231 235 231 230 235
231 228 221 219 218 215 215 215 214 211 209 213 214 215 215 213 212 214 216 215 217 213 209 211 215 217 208 201 207 207 204 195 196 192 196 202 197 187 184 177 202 206 226 228 225 180 196 197 207 193 210 196 211 215 217 233 233 230 233 227 229 237 236
233 229 225 221 220 215 215 214 214 212 211 213 213 214 216 214 213 215 217 216 217 213 208 211 212 214 204 199 206 205 198 197 193 195 200 199 205 200 204 176 187 207 216 224 224 211 187 205 191 225 191 212 210 211 223 224 235 223 227 227 226 222 225
231 231 227 224 220 216 215 214 211 212 213 214 214 214 216 215 215 216 217 217 216 212 209 210 211 210 198 198 203 202 199 195 195 199 196 204 202 202 183 181 190 207 214 213 223 219 198 187 204 197 195 192 201 226 219 231 227 229 230 235 228 229 231
234 227 229 226 223 219 217 214 212 212 214 213 213 214 216 217 217 218 218 218 217 212 210 210 211 205 197 197 200 201 198 196 198 195 201 204 202 203 201 204 209 209 214 221 225 206 216 189 195 201 202 191 191 207 228 235 242 245 237 231 247 235 234
238 233 229 230 225 221 217 214 213 214 215 214 213 214 215 216 217 219 219 218 217 213 211 211 209 203 198 199 201 199 196 194 194 197 202 204 201 200 199 206 208 208 213 217 221 215 203 208 213 195 216 199 192 216 214 225 243 252 228 223 226 248 239
241 240 232 233 229 226 220 216 216 215 214 214 212 212 215 216 216 217 218 218 216 212 211 209 206 203 201 201 201 198 197 188 195 194 202 203 196 199 200 208 205 206 212 214 219 217 211 202 205 213 191 169 177 215 246 221 222 246 241 233 231 227 236
271 260 251 244 236 232 222 216 219 214 211 211 213 211 215 214 214 215 215 215 213 211 208 207 205 204 204 201 195 189 189 191 187 189 197 201 193 198 201 205 206 207 206 214 214 227 203 202 211 209 187 200 205 216 228 211 200 244 241 237 247 245 224
310 285 262 257 259 254 235 230 226 221 215 207 208 209 210 212 213 213 212 212 212 211 208 207 204 203 194 188 185 185 186 188 190 194 196 194 188 196 199 204 205 205 203 205 213 220 208 217 225 212 203 214 223 219 234 229 223 238 238 222 255 255 226
345 342 338 305 272 267 260 252 244 229 221 217 209 201 207 208 213 211 211 211 209 210 207 206 203 199 195 192 188 190 189 192 194 197 199 201 201 196 194 200 204 208 196 201 215 216 211 222 231 223 204 218 220 213 217 226 224 231 230 229 245 256 247
351 353 353 341 321 274 266 262 250 234 230 224 219 206 202 208 211 209 211 211 210 211 205 203 199 199 195 198 197 196 199 200 195 197 199 198 197 199 201 200 197 197 196 201 209 217 219 218 228 228 205 214 196 219 221 225 215 222 220 232 235 245 241
342 332 343 325 292 279 271 272 258 243 236 232 227 221 204 207 208 211 211 210 211 207 203 197 196 198 197 200 196 196 201 203 206 203 202 204 204 203 205 213 215 205 196 193 202 214 222 214 221 226 222 197 208 195 217 209 220 224 227 227 235 239 242
327 324 319 307 286 282 288 271 271 253 248 245 241 239 232 202 211 210 212 210 208 206 202 197 194 196 199 195 199 201 199 201 205 206 208 212 215 219 216 217 222 222 203 189 203 209 222 222 200 228 213 198 186 186 207 202 223 221 226 229 231 233 231
328 322 322 314 303 296 289 280 272 263 259 258 255 252 247 227 211 211 211 209 206 203 201 198 197 199 199 194 197 201 194 196 200 202 209 215 219 220 220 216 221 224 222 209 210 216 225 227 214 225 215 184 189 201 208 202 216 216 221 232 249 263 238
337 327 326 317 317 305 294 301 290 280 273 268 266 265 262 258 224 208 210 208 203 196 199 192 193 193 198 196 197 204 200 201 195 204 210 215 219 221 222 223 217 218 222 222 218 215 221 224 220 217 211 202 194 204 210 212 225 227 223 231 242 244 231
326 328 330 323 324 314 304 315 304 293 286 281 277 273 271 271 226 210 206 207 199 197 193 193 187 191 193 196 198 203 207 209 197 205 211 215 217 219 218 225 217 227 231 232 235 236 233 231 229 234 236 231 222 211 201 202 210 221 201 218 238 246 234
326 334 355 340 327 329 310 305 307 300 295 291 287 281 273 229 196 200 207 198 191 191 201 205 203 199 193 192 200 198 209 214 207 206 212 213 218 221 223 224 204 222 236 237 240 242 243 242 239 235 235 236 235 228 214 188 211 213 193 218 225 238 233
336 330 352 3 347 328 330 318 319 317 309 303 298 296 321 131 145 199 195 193 192 184 196 216 216 210 204 201 201 206 214 216 214 209 208 211 216 224 225 222 198 217 223 233 248 256 257 262 258 256 253 250 245 243 235 208 209 206 195 216 222 228 240
357 345 330 354 357 339 343 338 318 324 315 313 309 306 311 120 124 181 205 215 207 200 203 199 208 216 217 217 215 217 220 220 219 214 211 204 215 222 230 216 214 220 216 223 222 234 239 244 250 250 249 248 253 253 252 235 199 205 205 213 222 219 217
349 353 328 339 342 342 328 343 324 320 320 316 314 310 309 309 242 173 200 204 216 215 210 208 207 213 216 224 226 225 227 229 230 229 221 215 215 216 222 215 216 223 214 223 224 228 232 236 240 244 243 239 225 225 227 214 203 199 206 209 217 221 222
353 351 330 328 330 332 323 334 334 319 319 316 314 311 308 308 308 292 212 214 197 207 215 215 216 208 214 218 229 235 235 234 235 237 234 226 225 226 228 226 215 217 216 220 224 225 230 231 232 235 238 239 233 225 215 210 208 206 207 212 212 212 218
344 344 330 323 318 324 325 326 328 320 312 311 310 309 307 303 301 297 295 287 263 241 231 207 206 213 214 224 232 236 240 245 247 246 242 240 238 235 231 228 221 211 211 214 216 216 220 222 221 225 229 230 232 230 219 210 207 210 212 220 224 224 223
341 338 330 323 317 317 320 318 322 315 310 307 306 305 304 301 297 292 287 288 286 288 267 260 234 213 218 226 235 241 244 246 248 248 248 249 249 248 243 236 227 218 210 209 214 216 217 219 217 217 224 224 223 223 214 212 212 213 213 217 224 229 235
334 330 318 320 312 310 307 311 316 308 304 301 298 300 301 298 295 296 298 295 303 302 301 289 280 266 249 247 250 248 245 244 247 250 255 257 257 258 254 251 238 230 224 214 211 214 217 218 216 213 219 219 213 214 188 187 219 212 212 213 223 226 227
323 320 319 308 299 297 294 299 303 293 295 290 290 288 289 290 292 293 290 287 284 287 288 289 288 291 300 308 309 298 276 254 251 252 251 253 253 253 252 223 197 204 211 220 218 210 213 217 214 217 216 204 174 172 201 194 205 198 221 197 210 224 246
322 318 313 301 290 286 291 295 295 294 289 290 289 280 273 276 280 280 282 278 276 275 269 268 267 269 274 280 282 279 282 289 264 247 242 238 236 237 235 227 196 200 205 214 211 212 213 214 211 194 165 174 180 201 205 190 202 199 217 193 204 202 230
313 300 289 284 283 286 292 289 289 285 281 282 272 263 256 258 263 262 251 262 263 254 252 253 265 275 279 283 289 287 277 268 271 261 245 238 231 225 219 210 213 210 204 213 208 211 209 201 189 191 200 191 194 206 203 191 198 199 213 202 171 177 227
287 275 265 263 280 294 295 297 292 270 269 259 255 249 247 260 256 250 256 248 256 262 266 268 281 267 270 257 255 260 256 257 257 260 256 247 235 223 220 217 211 218 219 212 194 210 204 210 195 209 199 201 202 206 205 190 202 209 210 199 185 210 214
315 322 343 355 355 344 327 321 314 321 321 320 319 315 308 299 298 297 286 268 259 257 251 243 237 247 244 251 243 246 247 245 242 245 248 247 231 219 216 215 220 222 227 198 203 210 203 206 199 212 203 206 210 210 208 196 195 205 202 198 196 215 224
349 355 4 4 346 342 337 332 334 335 324 318 317 317 318 322 326 324 320 328 338 316 269 242 236 243 230 238 237 243 249 246 247 245 244 243 239 230 221 221 218 225 220 216 209 209 207 207 202 210 203 209 209 211 205 194 210 202 195 209 204 213 221
359 359 357 357 348 340 333 340 342 335 327 327 327 324 328 326 326 335 352 355 355 343 317 307 284 265 247 236 232 237 238 239 239 241 238 243 245 244 234 229 232 226 219 226 219 213 211 212 211 212 210 209 211 207 204 190 196 194 198 210 208 214 215
360 0 356 351 349 349 348 348 343 338 338 333 328 327 327 343 355 357 5 15 23 12 356 353 346 336 334 329 308 287 256 248 241 238 237 231 232 235 232 228 232 231 228 226 222 217 220 216 215 214 212 210 206 200 207 194 198 196 197 198 200 210 210
7 358 353 349 351 351 351 349 344 344 340 332 329 336 358 5 355 358 7 29 24 9 346 337 327 328 323 315 309 307 303 292 272 254 251 246 241 237 236 235 228 225 228 225 222 221 224 217 217 207 208 209 205 206 204 195 200 188 191 197 201 202 203
333 345 349 349 352 353 351 348 347 343 337 337 356 360 3 8 12 3 353 358 3 2 338 335 330 315 312 304 308 315 324 318 320 314 296 270 254 246 240 239 229 226 223 221 221 221 222 216 212 210 205 204 200 199 201 202 195 194 194 196 197 202 204
317 321 324 345 352 354 352 351 350 348 349 356 359 2 13 11 360 353 342 345 332 339 333 337 327 325 315 319 318 328 327 322 326 324 328 327 323 309 269 239 233 231 224 222 221 221 219 213 213 207 203 204 205 200 201 198 198 194 197 197 197 194 201